Location: Breungeshain
(50.5000°N, 9.2000°E)
Time: 20:45:48
(UTC+00:00)

ISS - Pass Details

Date: 21 May 2017
Orbit: 401 x 408 km, 51.6° (Epoch: 25 June)

Event Time Altitude Azimuth Distance (km) Brightness Sun altitude
Exits shadow 00:52:56 12° 274° (W) 1,371 -1.3 -16.4°
Maximum altitude 00:55:59 70° 359° (N) 439 -3.6 -16.2°
Drops below altitude 10° 00:59:16 10° 83° (E) 1,468 -0.6 -16.0°
Sets 01:01:21 0° 86° (E) 2,327 0.4 -15.8°
